Location: Branche des Alpilles
(43.6087°N, 4.6976°E)
Time: 05:25:33
(UTC+00:00)

Cosmos 1933 - Pass Details

Date: 30 November 2020
Orbit: 546 x 564 km, 82.5° (Epoch: 27 January)

Event Time Altitude Azimuth Distance (km) Brightness Sun altitude
Rises 16:29:25 0° 166° (SSE) 2,716 7.0 -4.6°
Reaches altitude 10° 16:31:41 10° 157° (SSE) 1,830 6.0 -5.0°
Maximum altitude 16:35:22 35° 91° (E) 916 4.0 -5.6°
Drops below altitude 10° 16:39:05 10° 26° (NNE) 1,855 5.6 -6.2°
Sets 16:41:23 0° 17° (NNE) 2,758 6.5 -6.6°
